Location: Beddau
(51.5575°N, 3.3561°W)
Time: 12:58:24
(UTC+00:00)

Cosmos 2219 Rocket - Pass Details

Date: 03 March 2021
Orbit: 826 x 848 km, 71.0° (Epoch: 17 April)

Event Time Altitude Azimuth Distance (km) Brightness Sun altitude
Rises 21:07:24 0° 219° (SW) 3,358 5.4 -29.3°
Reaches altitude 10° 21:09:51 10° 223° (SW) 2,430 4.7 -29.7°
Maximum altitude 21:15:22 63° 304° (NW) 926 2.5 -30.4°
Drops below altitude 10° 21:20:58 10° 26° (NNE) 2,457 4.7 -31.1°
Sets 21:23:28 0° 30° (NNE) 3,398 5.4 -31.5°
